Hourly Data Report for September 07, 2017

All times are specified in Local Standard Time (LST). Add 1 hour to adjust for Daylight Saving Time where and when it is observed.

PENTICTON A
BRITISH COLUMBIA

49°27'45.000" N
119°36'08.000" W
344.40 m
1126146
71889
YYF

Download Data

Hourly Data (September 2017)
Hourly Data Report for September 7, 2017
Temp Definition
°C
Dew Point Temp Definition
°C
Rel Hum Definition
%
Wind Dir Definition
10's deg

Wind Spd Definition
km/h
Visibility Definition
km
Stn Press Definition
kPa
Hmdx Definition


Wind Chill Definition


Weather Definition


TIME
00:00 Legend Double Dagger 15.1 10.1 72 36 2 6.4 97.20     Smoke
01:00 Legend Double Dagger 14.5 10.4 76 2 4 6.4 97.22     Smoke
02:00 Legend Double Dagger 14.2 9.6 74 1 5 6.4 97.22     Smoke
03:00 Legend Double Dagger 14.9 10.4 74 36 2 6.4 97.21     Smoke
04:00 Legend Double Dagger 13.9 9.6 75 34 12 6.4 97.18     Smoke
05:00 Legend Double Dagger 14.5 9.7 73 1 9 6.4 97.19     Smoke
06:00 Legend Double Dagger 13.6 9.3 75 36 3 4.8 97.20     Smoke
07:00 Legend Double Dagger 14.2 10.0 75 33 7 4.8 97.23     Smoke
08:00 Legend Double Dagger 18.4 12.0 66 4 10 4.8 97.18     Smoke
09:00 Legend Double Dagger 20.4 13.6 64 35 9 4.8 97.18     Smoke
10:00 Legend Double Dagger 22.1 13.3 57 1 8 4.8 97.16 25   Smoke
11:00 Legend Double Dagger 22.9 11.3 47 3 12 4.8 97.06 25   Smoke
12:00 Legend Double Dagger 24.2 12.0 46 1 13 4.8 96.97 26   Smoke
13:00 Legend Double Dagger 24.4 12.9 48 1 12 4.8 96.88 27   Smoke
14:00 Legend Double Dagger 26.0 11.3 39 35 10 4.8 96.79 28   Smoke
15:00 Legend Double Dagger 25.4 11.3 41 2 5 6.4 96.74 27   Smoke
16:00 Legend Double Dagger 25.4 12.2 43 35 9 6.4 96.68 28   Smoke
17:00 Legend Double Dagger 24.0 13.1 50 34 8 6.4 96.62 27   Smoke
18:00 Legend Double Dagger 22.9 12.9 53 35 9 6.4 96.62 26   Smoke
19:00 Legend Double Dagger 20.1 12.8 63 3 4 6.4 96.62     Smoke
20:00 Legend Double Dagger 18.4 11.0 62 5 5 6.4 96.66     Smoke
21:00 Legend Double Dagger 17.6 11.9 69 36 3 6.4 96.71     Smoke
22:00 Legend Double Dagger 19.4 11.6 60 25 4 6.4 96.71     Smoke
23:00 Legend Double Dagger 17.5 11.6 68 33 3 8.1 96.74     Smoke

Notes on Data Quality.

Legend

  • E = Estimated
  • M = Missing
  • NA = Not Available
  • ‡ = Partner data that is not subject to review by the National Climate Archives
Date modified: